Location: Ç?ral? Körfezi
(36.3984°N, 30.4829°E)
Time: 20:15:12
(UTC+00:00)

Spot 2 Rocket - Pass Details

Date: 04 August 2024
Orbit: 753 x 769 km, 98.4° (Epoch: 14 September)

Event Time Altitude Azimuth Distance (km) Brightness Sun altitude
Exits shadow 18:36:05 25° 96° (E) 1,495 4.5 -17.5°
Maximum altitude 18:37:26 29° 69° (ENE) 1,380 4.5 -17.7°
Drops below altitude 10° 18:41:46 10° 10° (N) 2,305 6.3 -18.4°
Sets 18:44:19 0° 360° (N) 3,232 7.3 -18.8°
